Weather History for Aurora, NE

Change the Weather History Date:

Thursday, September 13, 2012

  Actual Average Record
Temperature  
Mean Temperature 60 °F -  
Max Temperature 69 °F 77 °F 95 °F (2000)
Min Temperature 50 °F 52 °F 35 °F (1974)
Degree Days  
Heating Degree Days 6    
Growing Degree Days 10 (Base 50)    
Moisture  
Dew Point 48 °F    
Average Humidity 73    
Maximum Humidity 100    
Minimum Humidity 34    
Precipitation  
Precipitation 0.08 in - - ()
Sea Level Pressure  
Sea Level Pressure 30.39 in    
Wind  
Wind Speed 5 mph (North)    
Max Wind Speed 10 mph    
Max Gust Speed -    
Visibility 9 miles    
Events Rain    
Averages and records for this station are not official NWS values.
T = Trace of Precipitation, MM = Missing Value Source: NWS Daily Summary

Daily Weather History Graph

Daily Weather History Graph

Search for Another Location

Airport:

Trip Planner

Search our weather history database for the weather conditions in past years. The results will help you decide how hot, cold, wet, or windy it might be!

Date:

Astronomy

Sep. 13, 2012 Rise Set
Actual Time 7:11 AM CDT 7:43 PM CDT
Civil Twilight 6:43 AM CDT 8:11 PM CDT
Nautical Twilight 6:10 AM CDT 8:43 PM CDT
Astronomical Twilight 5:37 AM CDT 9:16 PM CDT
Moon 4:31 AM CDT (9/13) 6:07 PM CDT (9/13)
Length of Visible Light 13h 27m
Length of Day
12h 32m
Waning Crescent, 7% of the Moon is Illuminated
Sep 13
Waning Crescent
Sep 15
New
Sep 22
First Quarter
Sep 29
Full
Oct 8
Last Quarter

Hourly Weather History & Observations

Time (CDT) Temp. Dew Point Humidity Pressure Visibility Wind Dir Wind Speed Gust Speed Precip Events Conditions
12:15 AM 53.2 °F 53.2 °F 100% 30.32 in 10.0 mi North 10.4 mph - N/A   Light Drizzle
12:35 AM 53.2 °F 53.1 °F 99% 30.32 in 7.0 mi NNE 8.1 mph - 0.02 in Rain Rain
12:55 AM 53.1 °F 53.1 °F 100% 30.32 in 7.0 mi NNE 5.8 mph - 0.05 in Rain Rain
1:15 AM 53.1 °F 52.9 °F 99% 30.33 in 10.0 mi NNE 8.1 mph - 0.03 in Rain Light Rain
1:35 AM 52.9 °F 52.7 °F 99% 30.33 in 10.0 mi North 6.9 mph - 0.03 in   Overcast
1:55 AM 52.9 °F 52.9 °F 100% 30.34 in 10.0 mi North 8.1 mph - 0.03 in   Overcast
2:15 AM 52.9 °F 52.7 °F 99% 30.34 in 10.0 mi North 9.2 mph - N/A   Mostly Cloudy
2:35 AM 52.9 °F 52.9 °F 100% 30.35 in 10.0 mi North 8.1 mph - N/A   Clear
2:55 AM 53.1 °F 52.9 °F 99% 30.34 in 10.0 mi North 6.9 mph - N/A   Clear
3:15 AM 52.7 °F 52.7 °F 100% 30.34 in 10.0 mi North 5.8 mph - N/A   Clear
3:35 AM 52.5 °F 52.5 °F 100% 30.34 in 10.0 mi North 4.6 mph - N/A   Clear
3:55 AM 52.2 °F 52.2 °F 100% 30.35 in 10.0 mi NNW 4.6 mph - N/A   Clear
4:15 AM 51.8 °F 51.8 °F 100% 30.35 in 7.0 mi NNW 5.8 mph - N/A   Clear
4:35 AM 51.6 °F 51.6 °F 100% 30.35 in 5.0 mi NNW 5.8 mph - N/A   Clear
4:55 AM 51.8 °F 51.8 °F 100% 30.35 in 5.0 mi NNW 4.6 mph - N/A   Clear
5:15 AM 51.3 °F 51.3 °F 100% 30.35 in 5.0 mi NNW 4.6 mph - N/A   Clear
5:35 AM 51.3 °F 51.3 °F 100% 30.36 in 5.0 mi NNW 5.8 mph - N/A   Clear
5:55 AM 51.1 °F 51.1 °F 100% 30.36 in 5.0 mi NNW 4.6 mph - N/A   Clear
6:15 AM 51.1 °F 51.1 °F 100% 30.36 in 5.0 mi North 3.5 mph - N/A   Clear
6:35 AM 51.1 °F 51.1 °F 100% 30.38 in 5.0 mi North 3.5 mph - N/A   Clear
6:55 AM 51.1 °F 51.1 °F 100% 30.39 in 7.0 mi North 4.6 mph - N/A   Clear
7:15 AM 50.9 °F 50.9 °F 100% 30.39 in 7.0 mi North 3.5 mph - N/A   Clear
7:35 AM 50.5 °F 50.5 °F 100% 30.39 in 7.0 mi Calm Calm - N/A   Clear
7:55 AM 50.5 °F 50.5 °F 100% 30.40 in 4.0 mi NNW 3.5 mph - N/A   Clear
8:15 AM 50.9 °F 50.9 °F 100% 30.41 in 5.0 mi NNW 3.5 mph - N/A   Clear
8:35 AM 51.4 °F 51.4 °F 100% 30.41 in 7.0 mi North 3.5 mph - N/A   Clear
8:55 AM 52.0 °F 52.0 °F 100% 30.42 in 7.0 mi North 3.5 mph - N/A   Clear
9:15 AM 52.7 °F 52.5 °F 99% 30.42 in 7.0 mi North 3.5 mph - N/A   Clear
9:35 AM 53.8 °F 52.7 °F 96% 30.44 in 10.0 mi North 4.6 mph - N/A   Clear
9:55 AM 54.7 °F 52.0 °F 91% 30.44 in 10.0 mi Calm Calm - N/A   Clear
10:15 AM 55.6 °F 51.8 °F 87% 30.44 in 10.0 mi NNE 4.6 mph - N/A   Clear
10:35 AM 56.3 °F 51.1 °F 83% 30.45 in 10.0 mi ENE 3.5 mph - N/A   Clear
10:55 AM 57.0 °F 50.7 °F 79% 30.45 in 10.0 mi NE 3.5 mph - N/A   Scattered Clouds
11:15 AM 57.6 °F 50.4 °F 77% 30.46 in 10.0 mi Calm Calm - N/A   Scattered Clouds
11:35 AM 58.1 °F 49.6 °F 73% 30.46 in 10.0 mi Calm Calm - N/A   Scattered Clouds
11:55 AM 59.5 °F 49.5 °F 69% 30.45 in 10.0 mi North 3.5 mph - N/A   Scattered Clouds
12:15 PM 59.5 °F 49.1 °F 68% 30.45 in 10.0 mi NNE 3.5 mph - N/A   Scattered Clouds
12:35 PM 60.3 °F 49.1 °F 67% 30.44 in 10.0 mi NNE 3.5 mph - N/A   Clear
12:55 PM 61.0 °F 48.0 °F 62% 30.44 in 10.0 mi Calm Calm - N/A   Clear
1:15 PM 62.2 °F 47.7 °F 59% 30.43 in 10.0 mi Calm Calm - N/A   Clear
1:35 PM 63.7 °F 45.7 °F 52% 30.42 in 10.0 mi Calm Calm - N/A   Clear
1:55 PM 64.6 °F 46.4 °F 52% 30.42 in 10.0 mi Calm Calm - N/A   Clear
2:15 PM 66.4 °F 44.2 °F 45% 30.42 in 10.0 mi ENE 5.8 mph - N/A   Clear
2:35 PM 66.4 °F 43.7 °F 44% 30.41 in 10.0 mi Calm Calm - N/A   Clear
2:55 PM 66.7 °F 41.7 °F 40% 30.40 in 10.0 mi Calm Calm - N/A   Clear
3:15 PM 67.8 °F 42.4 °F 40% 30.40 in 10.0 mi Calm Calm - N/A   Clear
3:35 PM 68.2 °F 41.9 °F 38% 30.39 in 10.0 mi SE 3.5 mph - N/A   Clear
3:55 PM 67.5 °F 40.8 °F 38% 30.39 in 10.0 mi Calm Calm - N/A   Clear
4:15 PM 69.1 °F 40.3 °F 35% 30.39 in 10.0 mi Calm Calm - N/A   Clear
4:35 PM 68.9 °F 40.3 °F 35% 30.39 in 10.0 mi Calm Calm - N/A   Clear
4:55 PM 69.8 °F 41.4 °F 36% 30.38 in 10.0 mi South 3.5 mph - N/A   Clear
5:15 PM 69.1 °F 39.7 °F 34% 30.38 in 10.0 mi South 5.8 mph - N/A   Clear
5:35 PM 68.5 °F 41.0 °F 37% 30.38 in 10.0 mi South 6.9 mph - N/A   Clear
5:55 PM 68.2 °F 38.8 °F 34% 30.38 in 10.0 mi South 4.6 mph - N/A   Clear
6:15 PM 68.0 °F 41.2 °F 38% 30.38 in 10.0 mi SSW 3.5 mph - N/A   Clear
6:35 PM 67.5 °F 42.4 °F 40% 30.38 in 10.0 mi South 4.6 mph - N/A   Clear
6:55 PM 67.1 °F 41.4 °F 39% 30.38 in 10.0 mi South 4.6 mph - N/A   Clear
7:15 PM 66.0 °F 43.5 °F 44% 30.38 in 10.0 mi Calm Calm - N/A   Clear
7:35 PM 63.1 °F 46.0 °F 54% 30.38 in 10.0 mi Calm Calm - N/A   Clear
7:55 PM 63.5 °F 45.0 °F 51% 30.38 in 10.0 mi South 4.6 mph - N/A   Clear
8:15 PM 61.7 °F 45.5 °F 55% 30.38 in 10.0 mi South 4.6 mph - N/A   Clear
8:35 PM 61.2 °F 44.4 °F 54% 30.39 in 10.0 mi South 5.8 mph - N/A   Clear
8:55 PM 60.1 °F 44.6 °F 57% 30.39 in 10.0 mi South 5.8 mph - N/A   Clear
9:15 PM 59.0 °F 44.6 °F 59% 30.39 in 10.0 mi South 5.8 mph - N/A   Clear
9:35 PM 59.4 °F 44.4 °F 58% 30.39 in 10.0 mi South 6.9 mph - N/A   Clear
9:55 PM 57.6 °F 43.9 °F 60% 30.39 in 10.0 mi SSW 5.8 mph - N/A   Clear
10:15 PM 56.5 °F 45.1 °F 66% 30.39 in 10.0 mi South 5.8 mph - N/A   Clear
10:35 PM 57.6 °F 45.3 °F 64% 30.39 in 10.0 mi SSW 5.8 mph - N/A   Clear
10:55 PM 57.0 °F 45.0 °F 64% 30.39 in 10.0 mi SSW 8.1 mph - N/A   Clear
11:15 PM 57.2 °F 44.8 °F 63% 30.39 in 10.0 mi SSW 8.1 mph - N/A   Clear
11:35 PM 56.1 °F 44.8 °F 66% 30.40 in 10.0 mi SSW 8.1 mph - N/A   Clear
11:55 PM 55.0 °F 44.8 °F 68% 30.40 in 10.0 mi SSW 6.9 mph - N/A   Clear